Вернуться в каталог

DELTA 2 R/B

АктивенLEO
NORAD 20763·ROCKET BODY·🇺🇸 United States

Запущен Aug 18, 1990 с Cape Canaveral Space Force Station

Loading…

Ближайшие Пролёты (ближайшие 24 часа)

TLE

СвежийSource: Space-Track

Эпоха: Sep 14, 2026, 19:30 UTC

1 20763U 90074B   26257.81251840  .00004640  00000-0  35818-3 0  9991
2 20763  24.7571  80.7876 0326916  83.5002 280.2615 14.64377642891148

Отслеживайте DELTA 2 R/B в реальном времени с AllMySat

Download on the App Store